Tomtor (Russia)  www.meteorete.it

situazione meteo Attuale :12:01:23
Temperatura : 17.2
Umidita :31.8 %
Pressione :1013.8 hPa
Vel vento :0.7 Km
Direz. :SE
Precip.(mm.):0.0
   

Condizioni Meteo per: Tomtor, Russia

aggiornamento precedente: 24.06.2017 19:32
prossimo aggiornamento: 25.06.2017 08:00
Latitude: 67.2° N
Longitude: 132.14° E
Altitude: 329 m

hPa
mm °C
    Temperatura Precipitazioni Pressione vento Umidità Nuvoloso Nebbia
Keskiyön aurinko OGGI
13:00   1013.8 hPa 0.7 m/s 32% 74%
15:00   1012.8 hPa 0.9 m/s 29% 12%
17:00   1011.9 hPa 1.3 m/s 28% 17%
19:00   1011.4 hPa 1.6 m/s 30% 95%
21:00   1011.2 hPa 2.0 m/s 41% 95%
23:00   1010.9 hPa 2.4 m/s 47% 27%
Keskiyön aurinko DOMANI
01:00   1010.7 hPa 2.5 m/s 49% 9%
03:00   1010.4 hPa 2.2 m/s 54% 6%
05:00   1010.0 hPa 2.1 m/s 58% 57%
07:00   1010.0 hPa 1.6 m/s 47% 0%
09:00   1009.2 hPa 1.7 m/s 37% 0%
11:00   1008.1 hPa 2.0 m/s 31% 6%
13:00   1007.0 hPa 1.9 m/s 26% 17%
15:00   1005.4 hPa 1.3 m/s 24% 14%
17:00   1004.3 hPa 1.2 m/s 23% 1%
19:00   1003.8 hPa 1.0 m/s 30% 0%
21:00   1003.9 hPa 1.9 m/s 47% 0%
23:00   1003.9 hPa 0.6 m/s 56% 0%
Keskiyön aurinko Martedi 27.06.2017
01:00   1003.6 hPa 0.5 m/s 54% 87%
03:00   1003.5 hPa 1.4 m/s 65% 98%
05:00   1003.6 hPa 2.0 m/s 66% 95%
07:00   1003.8 hPa 2.0 m/s 53% 73%
09:00   1003.4 hPa 2.1 m/s 42% 88%
11:00   1003.0 hPa 2.4 m/s 28% 94%
13:00   1002.6 hPa 2.4 m/s 22% 99%
15:00   1002.1 hPa 1.6 m/s 24% 100%
17:00   1002.1 hPa 1.8 m/s 27% 97%
19:00   1002.4 hPa 1.6 m/s 32% 100%
21:00   1003.5 hPa 2.1 m/s 45% 100%
23:00   1004.1 hPa 2.2 m/s 54% 100%
Keskiyön aurinko Mercoledi 28.06.2017
01:00   1004.9 hPa 2.7 m/s 62% 77%
03:00   1005.7 hPa 3.0 m/s 68% 66%
10:00   1007.0 hPa 2.7 m/s 55% 66%
16:00   1006.1 hPa 3.8 m/s 47% 85%
22:00 0.7 mm 1008.9 hPa 3.8 m/s 64% 100%
Keskiyön aurinko Giovedi 29.06.2017
04:00   1011.0 hPa 3.4 m/s 64% 82%
10:00   1011.8 hPa 2.5 m/s 47% 23%
16:00   1009.1 hPa 2.9 m/s 41% 7%
22:00   1007.9 hPa 1.2 m/s 57% 60%
Keskiyön aurinko Venerdi 30.06.2017
04:00   1005.9 hPa 2.4 m/s 65% 98%
10:00   1001.9 hPa 3.5 m/s 38% 87%
16:00   996.1 hPa 5.5 m/s 32% 100%
22:00   998.3 hPa 1.9 m/s 61% 72%
Keskiyön aurinko Sabato 01.07.2017
04:00   998.8 hPa 1.7 m/s 88% 84%
10:00   997.3 hPa 1.6 m/s 54% 50%
16:00   992.1 hPa 3.4 m/s 27% 99%
22:00   990.5 hPa 2.7 m/s 61% 100%
Keskiyön aurinko Domenica 02.07.2017
04:00   990.0 hPa 2.5 m/s 87% 82%
10:00 3.1 mm 994.7 hPa 3.9 m/s 87% 98%
16:00 2.4 mm 998.1 hPa 4.2 m/s 65% 29%
22:00   1004.6 hPa 3.0 m/s 59% 98%
Keskiyön aurinko Lunedi 03.07.2017
04:00   1007.9 hPa 1.5 m/s 81% 38%
10:00   1006.7 hPa 1.8 m/s 48% 97%
16:00   1001.9 hPa 1.9 m/s 29% 2%
22:00   999.9 hPa 1.2 m/s 52% 95%
Keskiyön aurinko Martedi 04.07.2017
04:00   997.6 hPa 2.4 m/s 72% 100%
10:00   993.6 hPa 2.5 m/s 61% 100%
16:00 8.5 mm 993.0 hPa 3.2 m/s 95% 100%
22:00   996.7 hPa 1.9 m/s 80% 96%